sat.trackr.live / text

‹ back to catalog

STARLINK-4068

NORAD 52681 · 2022-053AB

PAYLOAD ACTIVE UNKNOWN

§ Identity

Operator
Country
US
Launch date
2022-05-18
Launch site
AFETR
Launch vehicle
Mass (kg)
RCS (m²)

Purposes: comms

External: N2YO · Heavens-Above · Gunter

§ Orbital elements

Epoch: 2026-05-24T18:53:39.701184Z

Period
95.44 min
Inclination
53.2165°
Eccentricity
0.0000728
Mean motion
15.08837747 rev/d
Perigee alt
539.2 km
Apogee alt
540.3 km
Semi-major
6,917.9 km
B*
2.3985e-5
RAAN
162.5050°
Arg perigee
64.4876°
Mean anomaly
295.6191°
Rev number
22,262

§ Raw data

STARLINK-40681 52681U 22053AB  26144.78726506  .00000094  00000+0  23985-4 0  99952 52681  53.2165 162.5050 0000728  64.4876 295.6191 15.08837747222624

JSON: /api/v1/satellites/52681 · /tle

For live sub-satellite position, see the globe view (requires WebGL).

§ Visibility from observer

Set your observer location to see the next 7 days of passes ≥ 10°. The values pass through the URL so the page stays shareable.

No JS? Fill the form by hand. The geolocation button needs JavaScript.